Location: Applecreek Village
(41.3528°N, 81.4956°W)
Time: 04:48:02
(UTC+00:00)

ACS3 Solar Sail - Visible Passes

Search period start: 11 October 2024 00:00
Search period end: 21 October 2024 00:00
Orbit: 960 x 1036 km, 97.4° (Epoch: 10 October)

Date Brightness Start Highest point End Pass type
(mag) Time Alt. Az. Time Alt. Az. Time Alt. Az.
11 Oct 2.5 00:27:58 30° E 00:29:40 35° ENE 00:35:20 10° N visible
11 Oct 3.0 02:13:06 38° WSW 02:13:28 39° W 02:19:22 10° NNW visible
11 Oct 3.7 23:18:01 10° ENE 23:18:21 10° NE 23:18:41 10° NE visible
12 Oct 1.8 00:59:59 55° ESE 01:01:00 61° ENE 01:07:14 10° N visible
12 Oct 3.8 02:45:08 22° W 02:45:17 22° W 02:50:02 10° NW visible
12 Oct 3.2 23:46:51 15° E 23:49:17 18° ENE 23:53:24 10° NNE visible
13 Oct 1.9 01:32:00 74° SW 01:32:28 78° WSW 01:38:50 10° NNW visible
13 Oct 4.5 03:17:08 11° W 03:17:17 11° W 03:18:53 10° WNW visible
14 Oct 2.6 00:18:52 28° E 00:20:24 31° ENE 00:25:50 10° N visible
14 Oct 2.8 02:04:00 44° W 02:04:04 44° W 02:10:06 10° NNW visible
15 Oct 1.9 00:50:52 51° E 00:51:39 54° ENE 00:57:47 10° N visible
15 Oct 3.7 02:36:00 24° W 02:36:00 24° W 02:40:53 10° NW visible
15 Oct 3.3 23:37:42 14° E 23:40:00 16° ENE 23:43:39 10° NNE visible
16 Oct 1.8 01:22:51 84° SSW 01:23:04 87° WSW 01:29:25 10° NNW visible
16 Oct 4.4 03:08:00 13° W 03:08:00 13° W 03:10:27 10° WNW visible
17 Oct 2.7 00:09:41 26° E 00:11:03 28° ENE 00:16:14 10° N visible
17 Oct 2.6 01:54:49 49° W 01:54:49 49° W 02:00:44 10° NNW visible
18 Oct 2.0 00:41:39 47° E 00:42:15 48° ENE 00:48:14 10° N visible
18 Oct 3.5 02:26:47 27° W 02:26:47 27° W 02:31:37 10° NW visible
18 Oct 3.4 23:28:28 12° E 23:30:38 14° ENE 23:33:45 10° NNE visible
19 Oct 1.7 01:13:36 84° ENE 01:13:36 84° ENE 01:19:54 10° N visible
19 Oct 4.3 02:58:45 15° W 02:58:45 15° W 03:01:34 10° NW visible
20 Oct 2.8 00:00:25 23° E 00:01:37 25° ENE 00:06:31 10° NNE visible
20 Oct 2.4 01:45:33 55° W 01:45:33 55° W 01:51:16 10° NNW visible
